Location: Balmoral
(33.0667°S, 151.5833°E)
Time: 00:46:37
(UTC+00:00)

PAYLOAD B - Pass Details

Date: 18 September 2020
Orbit: 850 x 871 km, 99.1° (Epoch: 21 October)

Event Time Altitude Azimuth Distance (km) Brightness Sun altitude
Rises 19:17:55 0° 5° (N) 3,444 7.4 -7.0°
Reaches altitude 10° 19:20:19 10° 1° (N) 2,514 6.7 -6.5°
Maximum altitude 19:25:50 60° 282° (WNW) 1,000 4.3 -5.3°
Drops below altitude 10° 19:31:25 10° 202° (SSW) 2,537 6.5 -4.2°
Sets 19:33:51 0° 198° (SSW) 3,479 7.2 -3.7°
